[[{"header":{"parameterUnit":"m.s-1","parameterCategory":2,"la1":30.2992,"la2":30.254,"lo1":-89.0895,"lo2":-89.0443,"dy":0.0025,"dx":0.0025,"nx":19,"ny":19,"refTime":"2026-05-09T21:00:00:Z","depth":"0","parameterNumber":2,"parameterNumberName":"U-component_of_CURRENTS"},"data":[0,0,0,-0.0285,-0.0285,-0.0307,-0.0308,-0.0478,-0.048,0,0,0,0,0,0,0,0,0,0,0,-0.0277,-0.0277,-0.0285,-0.0285,-0.0307,-0.0308,-0.0478,-0.048,0,0,0,0,0,0,0,0,0,0,0,-0.0277,-0.0277,-0.0277,-0.0285,-0.0307,-0.0308,-0.0477,-0.0428,0,0,0,0,0,0,0,0,0,0,-0.039,-0.0346,-0.0277,-0.0277,-0.0285,-0.0307,-0.0308,-0.0424,-0.0431,-0.0505,0,-0.0497,0,-0.0492,-0.0493,-0.0494,0,0,0,-0.0296,-0.034,-0.0356,-0.0277,-0.0285,-0.0307,-0.03,-0.0427,-0.0435,-0.0515,-0.0499,-0.0504,-0.0494,-0.0495,-0.0496,-0.0638,-0.0638,0,0,-0.0295,-0.0279,-0.035,-0.0361,-0.028,-0.03,-0.0301,-0.043,-0.0432,-0.0499,-0.0508,-0.0497,-0.0496,-0.0498,-0.0638,-0.0638,0,0,0,-0.0284,-0.0278,-0.0289,-0.0355,-0.0347,-0.03,-0.0302,-0.0426,-0.0431,-0.0509,-0.0499,-0.0497,-0.05,-0.0638,-0.0638,-0.0606,0,0,0,-0.0284,-0.0271,-0.0288,-0.0279,-0.0343,-0.0364,-0.0294,-0.0422,-0.0436,-0.0498,-0.0497,-0.0502,-0.0638,-0.0638,-0.0607,-0.0591,0,0,0,-0.0278,-0.027,-0.0271,-0.0278,-0.0283,-0.0361,-0.0373,-0.0424,-0.0431,-0.0494,-0.0502,-0.0638,-0.0638,-0.0608,-0.0592,-0.0447,0,0,0,-0.0265,-0.028,-0.027,-0.0284,-0.0282,-0.0332,-0.0372,-0.0417,-0.0467,-0.0498,-0.0638,-0.0638,-0.0608,-0.0593,-0.045,-0.014,-0.0101,0,0,-0.0285,-0.0281,-0.0292,-0.0285,-0.0311,-0.033,-0.038,-0.0455,-0.0496,-0.0608,-0.061,-0.0607,-0.0592,-0.0448,-0.0146,-0.0105,0,0,0,-0.03,-0.0282,-0.0295,-0.0299,-0.0346,-0.0375,-0.0434,-0.0469,-0.0538,-0.0522,-0.0617,-0.0609,-0.0518,-0.0339,-0.0308,-0.003,-0.0638,-0.0638,-0.0638,-0.0228,-0.0266,-0.0281,-0.0317,-0.0355,-0.0417,-0.0452,-0.051,-0.0557,-0.0571,-0.0592,-0.0476,-0.0289,-0.0261,0.0019,-0.0602,-0.0602,-0.0602,-0.0602,-0.0213,-0.021,-0.0261,-0.0298,-0.0355,-0.0405,-0.0488,-0.051,-0.0515,-0.0586,-0.0496,-0.0328,-0.0223,0.0062,-0.06,-0.0601,-0.0601,-0.0601,-0.0601,-0.0164,-0.017,-0.0199,-0.0257,-0.0288,-0.037,-0.0331,-0.0412,-0.0463,-0.0428,-0.0125,-0.0121,0.0147,-0.0328,-0.0327,-0.0326,-0.0326,-0.0325,-0.0325,-0.0089,-0.0116,-0.0143,-0.0205,-0.0204,-0.0217,-0.0216,-0.0163,-0.0049,-0.0051,-0.0046,0.0245,-0.039,-0.0381,-0.0314,-0.0316,-0.0317,-0.0318,-0.0319,-0.0006,-0.0042,-0.0014,-0.0032,-0.0035,0.004,0.0047,0.0312,0.0384,0.0514,0.0758,0.0184,0.0229,0.0207,0.0231,0.0452,0.0452,0.0452,0.0452,0.0069,0.0026,0.0128,0.0168,0.0157,0.0201,0.0499,0.073,0.1052,0.1269,0.1226,0.1247,0.1203,0.1302,0.1254,0.1297,0.1784,0.1786,0.1788,0.0135,0.0204,0.0266,0.0286,0.0276,0.0388,0.0699,0.1123,0.1663,0.1855,0.1555,0.1499,0.1525,0.1434,0.1572,0.1483,0.1543,0,0]},{"header":{"parameterUnit":"m.s-1","parameterCategory":2,"la1":30.2992,"la2":30.254,"lo1":-89.0895,"lo2":-89.0443,"dy":0.0025,"dx":0.0025,"nx":19,"ny":19,"refTime":"2026-05-09T21:00:00:Z","depth":"0","parameterNumber":3,"parameterNumberName":"V-component_of_CURRENTS"},"data":[0,0,0,0.0316,0.0317,0.0329,0.0329,0.0318,0.0317,0,0,0,0,0,0,0,0,0,0,0,0.0294,0.0294,0.0316,0.0317,0.0329,0.0329,0.0318,0.0317,0,0,0,0,0,0,0,0,0,0,0,0.0294,0.0294,0.0293,0.0317,0.0329,0.0329,0.0318,0.0315,0,0,0,0,0,0,0,0,0,0,0.0306,0.0303,0.0294,0.0293,0.0317,0.0329,0.0329,0.0315,0.0315,0.0304,0,0.0292,0,0.0312,0.0316,0.0316,0,0,0,0.0316,0.0303,0.0296,0.0293,0.0317,0.0329,0.0323,0.0315,0.0315,0.0304,0.0292,0.0293,0.0312,0.0316,0.0316,0.0246,0.0245,0,0,0.0315,0.031,0.0295,0.0295,0.0302,0.0323,0.0324,0.0316,0.0313,0.0292,0.0293,0.0311,0.0316,0.0316,0.0247,0.0246,0,0,0,0.0314,0.0309,0.0303,0.0295,0.0303,0.0323,0.0324,0.0314,0.0308,0.0293,0.0311,0.0316,0.0315,0.0247,0.0246,0.0168,0,0,0,0.0313,0.0309,0.0302,0.0301,0.0303,0.0317,0.0322,0.0308,0.0308,0.0311,0.0316,0.0315,0.0248,0.0247,0.0172,0.0149,0,0,0,0.0297,0.0308,0.0301,0.03,0.0308,0.0318,0.0312,0.0308,0.0319,0.0316,0.0315,0.0248,0.0247,0.0175,0.0154,0.0163,0,0,0,0.0303,0.026,0.03,0.0258,0.0307,0.0263,0.0313,0.0289,0.0277,0.0315,0.0248,0.0246,0.0176,0.0157,0.0165,0.0293,0.0293,0,0,0.0246,0.0254,0.0226,0.0262,0.0214,0.0262,0.0206,0.022,0.0254,0.025,0.0249,0.0171,0.0154,0.0164,0.0209,0.0212,0,0,0,0.0206,0.0195,0.0182,0.0172,0.0156,0.015,0.0166,0.0165,0.0163,0.0244,0.0163,0.0155,0.0164,0.0246,0.0246,0.036,0.024,0.024,0.024,0.0166,0.0153,0.0109,0.0094,0.0069,0.0065,0.0045,0.0053,0.0089,0.0072,0.0085,0.003,0.0114,0.0117,0.023,0.0073,0.0073,0.0072,0.0072,0.0099,0.008,0.0066,0.0017,0.0005,-0.0034,-0.0055,-0.0041,-0.0048,-0.001,0.0003,0.0151,0.0114,0.0234,0.0067,0.0068,0.0068,0.0069,0.0069,0.0079,0.0067,0.004,-0.0014,-0.0051,-0.0072,-0.0072,-0.0094,-0.0097,-0.0108,0.005,0.0054,0.0171,-0.0073,-0.0073,-0.0073,-0.0073,-0.0073,-0.0073,0.008,0.0052,0.0017,-0.0041,-0.0053,-0.0074,-0.0075,-0.006,-0.0027,-0.0013,-0.0011,0.0171,-0.0012,0.0006,-0.0074,-0.0074,-0.0074,-0.0074,-0.0074,0.0079,0.005,0.0031,0.0008,-0.0037,-0.0001,0.0001,0.0102,0.0094,0.0133,0.0245,0.005,0.0103,0.0104,0.0127,0.0082,0.0082,0.0082,0.0082,0.0084,0.006,0.005,0.0038,0.0006,0.0039,0.0233,0.0352,0.04,0.0435,0.0368,0.0431,0.0419,0.0493,0.0486,0.0517,0.0572,0.0572,0.0573,0.0094,0.0112,0.0097,0.0064,0.0031,0.0115,0.0379,0.0698,0.072,0.0598,0.0494,0.0473,0.0567,0.054,0.0658,0.0639,0.0691,0,0]}],[{"header":{"parameterUnit":"m.s-1","parameterCategory":2,"la1":30.2992,"la2":30.254,"lo1":-89.0895,"lo2":-89.0443,"dy":0.0025,"dx":0.0025,"nx":19,"ny":19,"refTime":"2026-05-09T21:00:00:Z","depth":"2","parameterNumber":2,"parameterNumberName":"U-component_of_CURRENTS"},"data":[0,0,0,-0.1402,-0.1401,-0.1338,-0.1338,-0.1271,-0.1271,0,0,0,0,0,0,0,0,0,0,0,-0.1427,-0.1426,-0.1402,-0.14,-0.1338,-0.1338,-0.1271,-0.1271,0,0,0,0,0,0,0,0,0,0,0,-0.1427,-0.1427,-0.1426,-0.14,-0.1338,-0.1338,-0.1271,-0.1314,0,0,0,0,0,0,0,0,0,0,-0.1372,-0.1402,-0.1427,-0.1426,-0.14,-0.1338,-0.1338,-0.1316,-0.1311,-0.1304,0,-0.1299,0,-0.1284,-0.1267,-0.1267,0,0,0,-0.1396,-0.1406,-0.1383,-0.1426,-0.1399,-0.1339,-0.1365,-0.1313,-0.1308,-0.1298,-0.1298,-0.1295,-0.1283,-0.1266,-0.1266,-0.1221,-0.1221,0,0,-0.1399,-0.142,-0.1386,-0.138,-0.1389,-0.1367,-0.1363,-0.131,-0.1311,-0.1298,-0.1293,-0.1281,-0.1266,-0.1266,-0.1221,-0.1221,0,0,0,-0.1412,-0.1422,-0.14,-0.1383,-0.137,-0.1365,-0.1361,-0.1314,-0.1305,-0.1292,-0.1281,-0.1266,-0.1265,-0.1221,-0.1221,-0.1209,0,0,0,-0.1414,-0.143,-0.1402,-0.1414,-0.1372,-0.1341,-0.1366,-0.1308,-0.1302,-0.1281,-0.1266,-0.1265,-0.1221,-0.1221,-0.121,-0.1279,0,0,0,-0.1429,-0.1431,-0.1424,-0.1415,-0.1389,-0.1341,-0.1329,-0.1306,-0.1295,-0.1267,-0.1264,-0.1221,-0.1221,-0.121,-0.1278,-0.1137,0,0,0,-0.145,-0.1454,-0.1425,-0.14,-0.1389,-0.1316,-0.1329,-0.1299,-0.1276,-0.1265,-0.1221,-0.1221,-0.121,-0.1276,-0.1138,-0.0853,-0.0823,0,0,-0.1468,-0.1457,-0.1432,-0.1405,-0.1324,-0.1324,-0.1272,-0.127,-0.1271,-0.1239,-0.1238,-0.121,-0.1277,-0.1137,-0.0844,-0.0814,0,0,0,-0.1444,-0.1421,-0.1388,-0.1333,-0.128,-0.126,-0.1239,-0.124,-0.1236,-0.1257,-0.1209,-0.1255,-0.1164,-0.0996,-0.0972,-0.122,-0.122,-0.122,-0.122,-0.1484,-0.1419,-0.1363,-0.1284,-0.1251,-0.1217,-0.1215,-0.1222,-0.1202,-0.1213,-0.1241,-0.114,-0.0961,-0.094,-0.1197,-0.1197,-0.1197,-0.1197,-0.1197,-0.1445,-0.1387,-0.134,-0.1281,-0.1254,-0.1237,-0.1212,-0.122,-0.1192,-0.1233,-0.1139,-0.0992,-0.0912,-0.1196,-0.1196,-0.1197,-0.1197,-0.1197,-0.1197,-0.1429,-0.1394,-0.1377,-0.1279,-0.1301,-0.1276,-0.1223,-0.1238,-0.121,-0.1188,-0.0883,-0.088,-0.1109,-0.1073,-0.1073,-0.1073,-0.1072,-0.1072,-0.1072,-0.1413,-0.1384,-0.1295,-0.1277,-0.1219,-0.1224,-0.1222,-0.1092,-0.0893,-0.0894,-0.0888,-0.1097,-0.1101,-0.1101,-0.1067,-0.1068,-0.1069,-0.1069,-0.1069,-0.1302,-0.1325,-0.1159,-0.1078,-0.0986,-0.0878,-0.0975,-0.0731,-0.0582,-0.0421,-0.0654,-0.0666,-0.063,-0.0645,-0.0633,-0.0481,-0.0481,-0.0481,-0.0481,-0.1232,-0.1228,-0.0992,-0.0836,-0.0679,-0.0713,-0.0492,-0.0423,-0.0304,-0.0328,-0.0337,-0.0326,-0.0348,-0.0301,-0.0325,-0.0309,-0.0073,-0.0073,-0.0074,-0.1104,-0.1064,-0.0874,-0.0782,-0.0563,-0.046,-0.0334,-0.0229,-0.0035,-0.0079,-0.0491,-0.041,-0.0413,-0.0442,-0.0388,-0.0419,-0.0401,0,0]},{"header":{"parameterUnit":"m.s-1","parameterCategory":2,"la1":30.2992,"la2":30.254,"lo1":-89.0895,"lo2":-89.0443,"dy":0.0025,"dx":0.0025,"nx":19,"ny":19,"refTime":"2026-05-09T21:00:00:Z","depth":"2","parameterNumber":3,"parameterNumberName":"V-component_of_CURRENTS"},"data":[0,0,0,-0.0349,-0.0346,-0.0204,-0.0203,-0.0014,-0.0013,0,0,0,0,0,0,0,0,0,0,0,-0.0398,-0.0397,-0.0349,-0.0346,-0.0204,-0.0203,-0.0015,-0.0013,0,0,0,0,0,0,0,0,0,0,0,-0.0398,-0.0398,-0.0397,-0.0346,-0.0204,-0.0203,-0.0015,-0.012,0,0,0,0,0,0,0,0,0,0,-0.0257,-0.0313,-0.0398,-0.0397,-0.0345,-0.0205,-0.0203,-0.0125,-0.0114,-0.0082,0,-0.0068,0,-0.0042,-0.0001,-0.0001,0,0,0,-0.033,-0.0323,-0.0284,-0.0397,-0.0344,-0.0205,-0.0264,-0.0119,-0.0106,-0.0067,-0.0065,-0.0058,-0.0039,-0.0,0.0001,0.0002,0.0,0,0,-0.0338,-0.0367,-0.0293,-0.0276,-0.0317,-0.0268,-0.0259,-0.0111,-0.0101,-0.0064,-0.0053,-0.0036,0.0001,0.0002,0.0003,0.0001,0,0,0,-0.0371,-0.0373,-0.0338,-0.0284,-0.0262,-0.0265,-0.0254,-0.0108,-0.0096,-0.0051,-0.0034,0.0002,0.0004,0.0004,0.0002,-0.0112,0,0,0,-0.0375,-0.0394,-0.0342,-0.0357,-0.0265,-0.0185,-0.0255,-0.0106,-0.0089,-0.0035,0.0002,0.0006,0.0006,0.0003,-0.0106,-0.0088,0,0,0,-0.0403,-0.0396,-0.0383,-0.0359,-0.0305,-0.0187,-0.0166,-0.0102,-0.0079,-0.0001,0.0006,0.0007,0.0004,-0.01,-0.0082,-0.0048,0,0,0,-0.0433,-0.042,-0.0384,-0.0376,-0.0306,-0.0289,-0.0166,-0.0108,-0.0051,0.0003,0.0005,0.0002,-0.0099,-0.0077,-0.0045,0.0005,-0.0004,0,0,-0.0436,-0.0421,-0.0421,-0.0385,-0.0393,-0.0306,-0.0318,-0.0167,-0.0091,-0.0036,-0.0035,-0.0108,-0.0081,-0.0047,-0.0168,-0.0171,0,0,0,-0.0435,-0.0436,-0.0434,-0.0427,-0.0405,-0.0384,-0.0279,-0.0245,-0.0181,-0.0073,-0.0137,-0.0115,-0.009,-0.0056,-0.0061,-0.0012,-0.0011,-0.0011,-0.0011,-0.0473,-0.047,-0.049,-0.0488,-0.0483,-0.0434,-0.0407,-0.0347,-0.0277,-0.0287,-0.0234,-0.0312,-0.0286,-0.0286,-0.0296,-0.0297,-0.0297,-0.0298,-0.0298,-0.0513,-0.0538,-0.054,-0.0548,-0.0546,-0.0543,-0.0512,-0.0463,-0.0408,-0.0375,-0.0346,-0.0211,-0.0296,-0.0308,-0.0306,-0.0304,-0.0303,-0.0303,-0.0302,-0.0566,-0.0579,-0.0571,-0.0573,-0.0587,-0.0568,-0.0539,-0.0503,-0.0464,-0.0449,-0.0326,-0.0323,-0.0296,-0.0419,-0.0419,-0.0419,-0.0419,-0.0419,-0.0419,-0.0622,-0.0622,-0.0599,-0.0593,-0.0562,-0.055,-0.0519,-0.0472,-0.0407,-0.0393,-0.0392,-0.0349,-0.0346,-0.0301,-0.0417,-0.0417,-0.0417,-0.0417,-0.0418,-0.0681,-0.0643,-0.0601,-0.0556,-0.0517,-0.0456,-0.0481,-0.0414,-0.0348,-0.031,-0.035,-0.0352,-0.0274,-0.027,-0.0223,-0.031,-0.031,-0.031,-0.031,-0.07,-0.0688,-0.0602,-0.0538,-0.0473,-0.0439,-0.0373,-0.0351,-0.0303,-0.031,-0.031,-0.0327,-0.0331,-0.0254,-0.0251,-0.0203,-0.0285,-0.0286,-0.0286,-0.0712,-0.0676,-0.0614,-0.0558,-0.0465,-0.0401,-0.0333,-0.0225,-0.016,-0.0288,-0.0342,-0.0302,-0.0328,-0.0333,-0.0213,-0.021,-0.0131,0,0]}],[{"header":{"parameterUnit":"m.s-1","parameterCategory":2,"la1":30.2992,"la2":30.254,"lo1":-89.0895,"lo2":-89.0443,"dy":0.0025,"dx":0.0025,"nx":19,"ny":19,"refTime":"2026-05-09T21:00:00:Z","depth":"4","parameterNumber":2,"parameterNumberName":"U-component_of_CURRENTS"},"data":[0,0,0,-0.0693,-0.0694,-0.0711,-0.0711,-0.073,-0.073,0,0,0,0,0,0,0,0,0,0,0,-0.069,-0.069,-0.0693,-0.0694,-0.0711,-0.0711,-0.073,-0.073,0,0,0,0,0,0,0,0,0,0,0,-0.0689,-0.069,-0.069,-0.0694,-0.0711,-0.0711,-0.073,-0.0717,0,0,0,0,0,0,0,0,0,0,-0.07,-0.0701,-0.069,-0.069,-0.0694,-0.0711,-0.0711,-0.0716,-0.0718,-0.0722,0,-0.073,0,-0.0731,-0.0731,-0.0732,0,0,0,-0.0691,-0.07,-0.0702,-0.069,-0.0694,-0.0711,-0.0702,-0.0717,-0.0719,-0.0724,-0.073,-0.0731,-0.0732,-0.0732,-0.0732,-0.0797,-0.0798,0,0,-0.069,-0.0694,-0.0701,-0.0704,-0.0705,-0.0702,-0.0703,-0.0718,-0.0724,-0.073,-0.0731,-0.0732,-0.0732,-0.0732,-0.0797,-0.0797,0,0,0,-0.0689,-0.0693,-0.0695,-0.0703,-0.0707,-0.0702,-0.0704,-0.0723,-0.0723,-0.0732,-0.0732,-0.0732,-0.0732,-0.0796,-0.0797,-0.0819,0,0,0,-0.0688,-0.0693,-0.0695,-0.0698,-0.0707,-0.0717,-0.0709,-0.0722,-0.0724,-0.0732,-0.0732,-0.0732,-0.0795,-0.0797,-0.0817,-0.0815,0,0,0,-0.0688,-0.0693,-0.0696,-0.0698,-0.0706,-0.0716,-0.0717,-0.0723,-0.0725,-0.0732,-0.0732,-0.0795,-0.0796,-0.0815,-0.0813,-0.078,0,0,0,-0.0689,-0.0699,-0.0697,-0.0713,-0.0706,-0.0732,-0.0717,-0.0735,-0.0743,-0.0732,-0.0796,-0.0797,-0.0815,-0.0812,-0.0779,-0.0643,0,0,0,-0.07,-0.0701,-0.071,-0.0709,-0.0737,-0.0729,-0.0764,-0.0766,-0.0766,-0.0788,-0.079,-0.0818,-0.0813,-0.078,-0.0722,0,0,0,0,-0.0713,-0.072,-0.0729,-0.0747,-0.0762,-0.0781,-0.0787,-0.0797,-0.082,-0.0778,-0.0838,-0.0835,-0.0812,-0.0733,-0.0803,-0.0803,-0.0803,-0.0803,-0.0803,-0.0724,-0.0736,-0.0759,-0.0778,-0.0798,-0.0822,-0.084,-0.0858,-0.0852,-0.0874,-0.0868,-0.088,-0.0802,-0.0892,-0.0892,-0.0892,-0.0893,-0.0893,-0.0893,-0.0738,-0.0749,-0.0777,-0.0803,-0.0831,-0.0861,-0.0895,-0.0898,-0.0911,-0.0916,-0.0893,-0.0784,-0.0895,-0.0895,-0.0894,-0.0894,-0.0894,-0.0894,-0.0894,-0.0738,-0.0746,-0.0769,-0.0805,-0.0843,-0.0873,-0.0876,-0.0911,-0.0921,-0.0919,-0.079,-0.088,-0.0856,-0.0889,-0.0889,-0.0888,-0.0888,-0.0888,-0.0888,-0.0723,-0.0747,-0.076,-0.0802,-0.0816,-0.0833,-0.0859,-0.0843,-0.0857,-0.0792,-0.0903,-0.0878,-0.0878,-0.0856,-0.0886,-0.0887,-0.0887,-0.0887,-0.0887,-0.071,-0.0722,-0.0734,-0.0748,-0.0758,-0.0759,-0.0796,-0.0719,-0.0682,-0.0632,-0.0714,-0.0723,-0.0688,-0.0693,-0.0663,-0.0637,-0.0635,-0.0633,0,-0.0691,-0.0702,-0.0693,-0.0688,-0.0664,-0.0705,-0.0607,-0.0586,-0.0591,-0.0581,-0.0701,-0.0799,-0.0803,-0.077,-0.0771,-0.0739,0,0,0,-0.0672,-0.0682,-0.0652,-0.065,-0.0615,-0.0565,-0.0572,-0.0524,-0.0606,-0.0506,-0.059,-0.0602,-0.0763,-0.0881,-0.0848,-0.0849,-0.081,0,0]},{"header":{"parameterUnit":"m.s-1","parameterCategory":2,"la1":30.2992,"la2":30.254,"lo1":-89.0895,"lo2":-89.0443,"dy":0.0025,"dx":0.0025,"nx":19,"ny":19,"refTime":"2026-05-09T21:00:00:Z","depth":"4","parameterNumber":3,"parameterNumberName":"V-component_of_CURRENTS"},"data":[0,0,0,-0.0474,-0.0475,-0.0522,-0.0522,-0.0545,-0.0545,0,0,0,0,0,0,0,0,0,0,0,-0.0459,-0.0459,-0.0474,-0.0475,-0.0522,-0.0522,-0.0545,-0.0545,0,0,0,0,0,0,0,0,0,0,0,-0.0458,-0.0459,-0.0459,-0.0475,-0.0522,-0.0522,-0.0545,-0.052,0,0,0,0,0,0,0,0,0,0,-0.0479,-0.0476,-0.0459,-0.0459,-0.0475,-0.0521,-0.0522,-0.0519,-0.0521,-0.0513,0,-0.0521,0,-0.0531,-0.0546,-0.0546,0,0,0,-0.0478,-0.0474,-0.0479,-0.0459,-0.0476,-0.0521,-0.0501,-0.0521,-0.0523,-0.0516,-0.0521,-0.0522,-0.0531,-0.0546,-0.0546,-0.0492,-0.0492,0,0,-0.0476,-0.0474,-0.0477,-0.0481,-0.0488,-0.05,-0.0503,-0.0523,-0.0529,-0.0521,-0.0523,-0.0532,-0.0546,-0.0546,-0.0493,-0.0492,0,0,0,-0.0466,-0.0472,-0.0478,-0.0479,-0.049,-0.0501,-0.0505,-0.0528,-0.0528,-0.0523,-0.0532,-0.0546,-0.0546,-0.0494,-0.0493,-0.0516,0,0,0,-0.0465,-0.0466,-0.0477,-0.0477,-0.0489,-0.0516,-0.051,-0.0527,-0.053,-0.0532,-0.0546,-0.0546,-0.0494,-0.0493,-0.0517,-0.0548,0,0,0,-0.0456,-0.0466,-0.0469,-0.0477,-0.0495,-0.0516,-0.0518,-0.0528,-0.0534,-0.0546,-0.0546,-0.0495,-0.0493,-0.0518,-0.0549,-0.0546,0,0,0,-0.0455,-0.0463,-0.047,-0.0482,-0.0494,-0.0505,-0.0518,-0.0534,-0.0544,-0.0546,-0.0494,-0.0493,-0.0518,-0.0549,-0.0546,-0.0523,0,0,0,-0.0462,-0.0464,-0.047,-0.0477,-0.0491,-0.0498,-0.0504,-0.0525,-0.0512,-0.0488,-0.0487,-0.0517,-0.0549,-0.0546,-0.0432,0,0,0,0,-0.047,-0.0476,-0.0481,-0.0494,-0.0498,-0.0509,-0.0518,-0.0505,-0.0489,-0.051,-0.0479,-0.0498,-0.0496,-0.0479,-0.0485,-0.0485,-0.0486,-0.0486,-0.0486,-0.048,-0.0484,-0.0499,-0.0505,-0.0511,-0.0512,-0.0509,-0.0486,-0.0478,-0.0456,-0.0488,-0.0466,-0.0444,-0.0443,-0.0443,-0.0443,-0.0443,-0.0443,-0.0443,-0.0492,-0.0506,-0.0515,-0.0533,-0.0536,-0.054,-0.0509,-0.0497,-0.0472,-0.046,-0.0457,-0.0469,-0.0444,-0.0444,-0.0444,-0.0444,-0.0444,-0.0444,-0.0444,-0.0503,-0.0513,-0.0527,-0.0554,-0.0573,-0.057,-0.0568,-0.0545,-0.0502,-0.0501,-0.0474,-0.0478,-0.0511,-0.0499,-0.0499,-0.0499,-0.0499,-0.0499,-0.0499,-0.0512,-0.0525,-0.0552,-0.0579,-0.0602,-0.0619,-0.0611,-0.0592,-0.0559,-0.0503,-0.0516,-0.0484,-0.0483,-0.0512,-0.0501,-0.05,-0.05,-0.05,-0.05,-0.0526,-0.0538,-0.0571,-0.0598,-0.0639,-0.0641,-0.0644,-0.0593,-0.0569,-0.0525,-0.0489,-0.0489,-0.0483,-0.0481,-0.0511,-0.0499,-0.0499,-0.0498,0,-0.0539,-0.0546,-0.059,-0.0624,-0.0645,-0.0652,-0.0608,-0.0586,-0.0538,-0.0519,-0.057,-0.0532,-0.053,-0.0526,-0.0524,-0.056,0,0,0,-0.0549,-0.0562,-0.059,-0.0626,-0.0647,-0.0606,-0.0593,-0.0567,-0.0537,-0.0513,-0.0491,-0.0493,-0.0533,-0.0506,-0.0497,-0.0495,-0.0542,0,0]}]]